| time (UTC) | temp C | wind direction | speed KPH | gust KPH | rain 1hr cm | rain 24hr cm | rain mn cm | humidity % | barometer mb |
| 20260902083610 | 23 | 180 | 4.8 | 11.3 | 0.00 | 0.00 | 0.00 | ||
| 20260902083208 | 23 | 180 | 6.4 | 9.7 | 0.00 | 0.00 | 0.00 | ||
| 20260902082806 | 23 | 157 | 3.2 | 12.9 | 0.00 | 0.00 | 0.00 | ||
| 20260902082405 | 23 | 157 | 3.2 | 6.4 | 0.00 | 0.00 | 0.00 | ||
| 20260902082003 | 23 | 157 | 3.2 | 6.4 | 0.00 | 0.00 | 0.00 | ||
| 20260902081601 | 23 | 157 | 3.2 | 4.8 | 0.00 | 0.00 | 0.00 | ||
| 20260902081152 | 23 | 157 | 4.8 | 8.0 | 0.00 | 0.00 | 0.00 | ||
| 20260902080750 | 23 | 157 | 4.8 | 8.0 | 0.00 | 0.00 | 0.00 | ||
| 20260902080349 | 22 | 157 | 3.2 | 8.0 | 0.00 | 0.00 | 0.00 | ||
| 20260902075948 | 22 | 157 | 4.8 | 8.0 | 0.00 | 0.00 | 0.00 | ||
| 20260902075628 | 22 | 157 | 4.8 | 9.7 | 0.00 | 0.00 | 0.00 | ||
| 20260902075545 | 22 | 157 | 4.8 | 9.7 | 0.00 | 0.00 | 0.00 | ||
| 20260902075144 | 22 | 144 | 8.0 | 12.9 | 0.00 | 0.00 | 0.00 | ||
| 20260902074742 | 21 | 135 | 6.4 | 9.7 | 0.00 | 0.00 | 0.00 | ||
| 20260902074342 | 21 | 142 | 8.0 | 12.9 | 0.00 | 0.00 | 0.00 | ||
| 20260902073939 | 21 | 146 | 6.4 | 9.7 | 0.00 | 0.00 | 0.00 | ||
| 20260902073538 | 21 | 150 | 9.7 | 14.5 | 0.00 | 0.00 | 0.00 | ||
| 20260902073130 | 21 | 158 | 11.3 | 16.1 | 0.00 | 0.00 | 0.00 | ||
| 20260902072728 | 21 | 156 | 8.0 | 12.9 | 0.00 | 0.00 | 0.00 | ||
| 20260902072326 | 21 | 162 | 8.0 | 12.9 | 0.00 | 0.00 | 0.00 | ||
| 20260902071925 | 21 | 156 | 11.3 | 16.1 | 0.00 | 0.00 | 0.00 | ||
| 20260902071523 | 20 | 152 | 11.3 | 14.5 | 0.00 | 0.00 | 0.00 | ||
| 20260902071122 | 21 | 152 | 9.7 | 14.5 | 0.00 | 0.00 | 0.00 | ||
| 20260902070720 | 20 | 152 | 9.7 | 16.1 | 0.00 | 0.00 | 0.00 | ||
| 20260902070318 | 21 | 141 | 8.0 | 14.5 | 0.00 | 0.00 | 0.00 | ||
| 20260902065917 | 20 | 144 | 11.3 | 14.5 | 0.00 | 0.00 | 0.00 | ||
| 20260902065515 | 21 | 145 | 9.7 | 14.5 | 0.00 | 0.00 | 0.00 | ||
| 20260902065107 | 21 | 143 | 8.0 | 14.5 | 0.00 | 0.00 | 0.00 | ||
| 20260902064704 | 21 | 156 | 9.7 | 16.1 | 0.00 | 0.00 | 0.00 | ||
| 20260902064303 | 21 | 157 | 6.4 | 9.7 | 0.00 | 0.00 | 0.00 | ||
| 20260902063902 | 21 | 157 | 8.0 | 12.9 | 0.00 | 0.00 | 0.00 | ||
| 20260902063500 | 21 | 157 | 4.8 | 6.4 | 0.00 | 0.00 | 0.00 | ||
| 20260902063058 | 20 | 157 | 4.8 | 8.0 | 0.00 | 0.00 | 0.00 | ||
| 20260902062656 | 20 | 143 | 6.4 | 11.3 | 0.00 | 0.00 | 0.00 | ||
| 20260902062255 | 19 | 145 | 6.4 | 16.1 | 0.00 | 0.00 | 0.00 | ||
| 20260902061853 | 19 | 152 | 8.0 | 11.3 | 0.00 | 0.00 | 0.00 | ||
| 20260902061450 | 18 | 145 | 4.8 | 11.3 | 0.00 | 0.00 | 0.00 | ||
| 20260902061042 | 18 | 148 | 6.4 | 11.3 | 0.00 | 0.00 | 0.00 | ||
| 20260902060640 | 18 | 146 | 3.2 | 8.0 | 0.00 | 0.00 | 0.00 | ||
| 20260902060239 | 19 | 149 | 6.4 | 9.7 | 0.00 | 0.00 | 0.00 | ||
| 20260902055838 | 18 | 139 | 6.4 | 12.9 | 0.00 | 0.00 | 0.00 | ||
| 20260902055435 | 18 | 138 | 6.4 | 11.3 | 0.00 | 0.00 | 0.00 | ||
| 20260902055035 | 18 | 143 | 4.8 | 8.0 | 0.00 | 0.00 | 0.00 | ||
| 20260902054633 | 18 | 157 | 4.8 | 9.7 | 0.00 | 0.00 | 0.00 | ||
| 20260902054232 | 18 | 135 | 3.2 | 4.8 | 0.00 | 0.00 | 0.00 | ||
| 20260902053830 | 18 | 147 | 4.8 | 8.0 | 0.00 | 0.00 | 0.00 | ||
| 20260902053428 | 18 | 146 | 8.0 | 14.5 | 0.00 | 0.00 | 0.00 | ||
| 20260902053020 | 17 | 151 | 8.0 | 9.7 | 0.00 | 0.00 | 0.00 | ||
| 20260902052618 | 18 | 142 | 9.7 | 16.1 | 0.00 | 0.00 | 0.00 | ||
| 20260902052216 | 17 | 139 | 9.7 | 16.1 | 0.00 | 0.00 | 0.00 | ||
| 20260902051815 | 17 | 141 | 8.0 | 12.9 | 0.00 | 0.00 | 0.00 | ||
| 20260902051413 | 17 | 146 | 6.4 | 12.9 | 0.00 | 0.00 | 0.00 | ||
| 20260902051012 | 17 | 137 | 9.7 | 16.1 | 0.00 | 0.00 | 0.00 | ||
| 20260902050609 | 18 | 139 | 8.0 | 14.5 | 0.00 | 0.00 | 0.00 | ||
| 20260902050208 | 17 | 144 | 9.7 | 14.5 | 0.00 | 0.00 | 0.00 | ||
| 20260902045807 | 17 | 136 | 8.0 | 12.9 | 0.00 | 0.00 | 0.00 | ||
| 20260902045405 | 17 | 124 | 6.4 | 9.7 | 0.00 | 0.00 | 0.00 | ||
| 20260902044957 | 17 | 144 | 8.0 | 12.9 | 0.00 | 0.00 | 0.00 | ||
| 20260902044554 | 17 | 144 | 8.0 | 11.3 | 0.00 | 0.00 | 0.00 | ||
| 20260902044153 | 17 | 154 | 6.4 | 12.9 | 0.00 | 0.00 | 0.00 | ||
| 20260902043752 | 17 | 143 | 8.0 | 16.1 | 0.00 | 0.00 | 0.00 | ||
| 20260902043350 | 17 | 151 | 12.9 | 22.5 | 0.00 | 0.00 | 0.00 | ||
| 20260902042947 | 16 | 156 | 9.7 | 14.5 | 0.00 | 0.00 | 0.00 | ||
| 20260902042545 | 16 | 153 | 9.7 | 16.1 | 0.00 | 0.00 | 0.00 | ||
| 20260902042144 | 17 | 150 | 12.9 | 16.1 | 0.00 | 0.00 | 0.00 | ||
| 20260902041742 | 16 | 148 | 11.3 | 14.5 | 0.00 | 0.00 | 0.00 | ||
| 20260902041339 | 16 | 148 | 8.0 | 12.9 | 0.00 | 0.00 | 0.00 | ||
| 20260902040932 | 16 | 153 | 11.3 | 16.1 | 0.00 | 0.00 | 0.00 | ||
| 20260902040530 | 16 | 151 | 9.7 | 16.1 | 0.00 | 0.00 | 0.00 | ||
| 20260902040129 | 15 | 156 | 9.7 | 14.5 | 0.00 | 0.00 | 0.00 | ||
| 20260902035325 | 16 | 153 | 9.7 | 12.9 | 0.00 | 0.00 | 0.00 | ||
| 20260902034924 | 16 | 153 | 11.3 | 14.5 | 0.00 | 0.00 | 0.00 | ||
| 20260902034521 | 17 | 151 | 9.7 | 12.9 | 0.00 | 0.00 | 0.00 | ||
| 20260902034120 | 16 | 152 | 9.7 | 14.5 | 0.00 | 0.00 | 0.00 | ||
| 20260902033718 | 17 | 133 | 8.0 | 12.9 | 0.00 | 0.00 | 0.00 | ||
| 20260902033316 | 17 | 155 | 9.7 | 14.5 | 0.00 | 0.00 | 0.00 | ||
| 20260902032908 | 17 | 150 | 9.7 | 14.5 | 0.00 | 0.00 | 0.00 | ||
| 20260902032506 | 16 | 148 | 8.0 | 14.5 | 0.00 | 0.00 | 0.00 | ||
| 20260902032104 | 16 | 153 | 8.0 | 11.3 | 0.00 | 0.00 | 0.00 | ||
| 20260902031703 | 16 | 151 | 12.9 | 16.1 | 0.00 | 0.00 | 0.00 | ||
| 20260902031301 | 17 | 158 | 11.3 | 14.5 | 0.00 | 0.00 | 0.00 | ||
| 20260902030901 | 17 | 151 | 9.7 | 12.9 | 0.00 | 0.00 | 0.00 | ||
| 20260902030457 | 17 | 147 | 8.0 | 12.9 | 0.00 | 0.00 | 0.00 | ||
| 20260902030056 | 17 | 144 | 9.7 | 16.1 | 0.00 | 0.00 | 0.00 | ||
| 20260902025655 | 16 | 132 | 9.7 | 14.5 | 0.00 | 0.00 | 0.00 | ||
| 20260902025254 | 16 | 142 | 9.7 | 14.5 | 0.00 | 0.00 | 0.00 | ||
| 20260902024844 | 17 | 148 | 11.3 | 14.5 | 0.00 | 0.00 | 0.00 | ||
| 20260902024443 | 16 | 152 | 9.7 | 12.9 | 0.00 | 0.00 | 0.00 | ||
| 20260902024042 | 16 | 151 | 11.3 | 14.5 | 0.00 | 0.00 | 0.00 | ||
| 20260902023641 | 16 | 152 | 9.7 | 16.1 | 0.00 | 0.00 | 0.00 | ||
| 20260902023239 | 16 | 151 | 9.7 | 16.1 | 0.00 | 0.00 | 0.00 | ||
| 20260902022837 | 16 | 145 | 11.3 | 16.1 | 0.00 | 0.00 | 0.00 | ||
| 20260902022435 | 16 | 155 | 6.4 | 12.9 | 0.00 | 0.00 | 0.00 | ||
| 20260902022034 | 16 | 146 | 8.0 | 12.9 | 0.00 | 0.00 | 0.00 | ||
| 20260902021633 | 16 | 146 | 4.8 | 9.7 | 0.00 | 0.00 | 0.00 | ||
| 20260902021230 | 16 | 157 | 6.4 | 9.7 | 0.00 | 0.00 | 0.00 | ||
| 20260902020822 | 16 | 159 | 8.0 | 12.9 | 0.00 | 0.00 | 0.00 | ||
| 20260902020420 | 16 | 153 | 8.0 | 11.3 | 0.00 | 0.00 | 0.00 | ||
| 20260902020019 | 16 | 152 | 9.7 | 12.9 | 0.00 | 0.00 | 0.00 | ||
| 20260902015617 | 16 | 153 | 6.4 | 12.9 | 0.00 | 0.00 | 0.00 | ||
| 20260902015215 | 16 | 150 | 9.7 | 12.9 | 0.00 | 0.00 | 0.00 | ||
| 20260902014814 | 16 | 151 | 9.7 | 12.9 | 0.00 | 0.00 | 0.00 | ||
| 20260902014412 | 16 | 157 | 11.3 | 16.1 | 0.00 | 0.00 | 0.00 | ||
| 20260902014010 | 16 | 156 | 8.0 | 12.9 | 0.00 | 0.00 | 0.00 | ||
| 20260902013609 | 16 | 158 | 9.7 | 14.5 | 0.00 | 0.00 | 0.00 | ||
| 20260902013207 | 17 | 145 | 9.7 | 14.5 | 0.00 | 0.00 | 0.00 | ||
| 20260902012759 | 17 | 148 | 9.7 | 14.5 | 0.00 | 0.00 | 0.00 | ||
| 20260902012358 | 16 | 140 | 8.0 | 14.5 | 0.00 | 0.00 | 0.00 | ||
| 20260902011955 | 16 | 153 | 6.4 | 12.9 | 0.00 | 0.00 | 0.00 | ||
| 20260902011555 | 16 | 150 | 8.0 | 11.3 | 0.00 | 0.00 | 0.00 | ||
| 20260902011153 | 16 | 154 | 8.0 | 11.3 | 0.00 | 0.00 | 0.00 | ||
| 20260902010752 | 17 | 158 | 8.0 | 12.9 | 0.00 | 0.00 | 0.00 | ||
| 20260902010349 | 17 | 160 | 11.3 | 14.5 | 0.00 | 0.00 | 0.00 | ||
| 20260902005948 | 17 | 158 | 8.0 | 12.9 | 0.00 | 0.00 | 0.00 | ||
| 20260902005547 | 16 | 153 | 9.7 | 12.9 | 0.00 | 0.00 | 0.00 | ||
| 20260902005145 | 17 | 152 | 4.8 | 9.7 | 0.00 | 0.00 | 0.00 | ||
| 20260902004736 | 17 | 144 | 8.0 | 12.9 | 0.00 | 0.00 | 0.00 | ||
| 20260902004334 | 17 | 157 | 9.7 | 14.5 | 0.00 | 0.00 | 0.00 | ||
| 20260902003933 | 16 | 155 | 6.4 | 11.3 | 0.00 | 0.00 | 0.00 | ||
| 20260902003532 | 17 | 156 | 11.3 | 14.5 | 0.00 | 0.00 | 0.00 | ||
| 20260902003129 | 16 | 156 | 8.0 | 14.5 | 0.00 | 0.00 | 0.00 | ||
| 20260902002728 | 16 | 151 | 9.7 | 14.5 | 0.00 | 0.00 | 0.00 | ||
| 20260902002326 | 16 | 153 | 8.0 | 11.3 | 0.00 | 0.00 | 0.00 | ||
| 20260902001925 | 16 | 161 | 9.7 | 12.9 | 0.00 | 0.00 | 0.00 | ||
| 20260902001524 | 16 | 143 | 8.0 | 12.9 | 0.00 | 0.00 | 0.00 | ||
| 20260902001121 | 17 | 150 | 6.4 | 9.7 | 0.00 | 0.00 | 0.00 | ||
| 20260902000713 | 16 | 143 | 6.4 | 9.7 | 0.00 | 0.00 | 0.00 | ||
| 20260902000312 | 17 | 150 | 6.4 | 9.7 | 0.00 | 0.00 | 0.00 | ||
| 20260901235508 | 17 | 158 | 9.7 | 12.9 | 0.00 | 0.00 | 0.00 | ||
| 20260901235106 | 16 | 159 | 6.4 | 14.5 | 0.00 | 0.00 | 0.00 | ||
| 20260901234705 | 17 | 157 | 6.4 | 12.9 | 0.00 | 0.00 | 0.00 | ||
| 20260901234303 | 17 | 153 | 9.7 | 16.1 | 0.00 | 0.00 | 0.00 | ||
| 20260901233901 | 17 | 157 | 6.4 | 11.3 | 0.00 | 0.00 | 0.00 | ||
| 20260901233500 | 16 | 162 | 6.4 | 9.7 | 0.00 | 0.00 | 0.00 | ||
| 20260901233058 | 16 | 162 | 8.0 | 12.9 | 0.00 | 0.00 | 0.00 | ||
| 20260901232651 | 17 | 162 | 6.4 | 9.7 | 0.00 | 0.00 | 0.00 | ||
| 20260901232247 | 16 | 161 | 8.0 | 11.3 | 0.00 | 0.00 | 0.00 | ||
| 20260901231847 | 16 | 156 | 4.8 | 8.0 | 0.00 | 0.00 | 0.00 | ||
| 20260901231446 | 16 | 158 | 6.4 | 11.3 | 0.00 | 0.00 | 0.00 | ||
| 20260901231044 | 16 | 157 | 6.4 | 8.0 | 0.00 | 0.00 | 0.00 | ||
| 20260901230643 | 17 | 154 | 6.4 | 9.7 | 0.00 | 0.00 | 0.00 | ||
| 20260901230240 | 17 | 157 | 4.8 | 6.4 | 0.00 | 0.00 | 0.00 | ||
| 20260901225839 | 17 | 157 | 4.8 | 9.7 | 0.00 | 0.00 | 0.00 | ||
| 20260901225438 | 17 | 145 | 4.8 | 8.0 | 0.00 | 0.00 | 0.00 | ||
| 20260901225036 | 17 | 145 | 4.8 | 6.4 | 0.00 | 0.00 | 0.00 | ||
| 20260901224627 | 17 | 138 | 6.4 | 9.7 | 0.00 | 0.00 | 0.00 | ||
| 20260901224225 | 17 | 147 | 9.7 | 11.3 | 0.00 | 0.00 | 0.00 | ||
| 20260901223824 | 17 | 153 | 6.4 | 12.9 | 0.00 | 0.00 | 0.00 | ||
| 20260901223423 | 17 | 157 | 6.4 | 9.7 | 0.00 | 0.00 | 0.00 | ||
| 20260901223020 | 17 | 157 | 8.0 | 11.3 | 0.00 | 0.00 | 0.00 | ||
| 20260901222217 | 17 | 157 | 4.8 | 8.0 | 0.00 | 0.00 | 0.00 | ||
| 20260901221816 | 17 | 144 | 6.4 | 9.7 | 0.00 | 0.00 | 0.00 | ||
| 20260901221414 | 18 | 133 | 6.4 | 11.3 | 0.00 | 0.00 | 0.00 | ||
| 20260901221014 | 17 | 124 | 4.8 | 9.7 | 0.00 | 0.00 | 0.00 | ||
| 20260901220604 | 17 | 133 | 4.8 | 8.0 | 0.00 | 0.00 | 0.00 | ||
| 20260901220203 | 17 | 135 | 4.8 | 8.0 | 0.00 | 0.00 | 0.00 | ||
| 20260901215802 | 17 | 138 | 6.4 | 8.0 | 0.00 | 0.00 | 0.00 | ||
| 20260901215359 | 17 | 141 | 4.8 | 8.0 | 0.00 | 0.00 | 0.00 | ||
| 20260901214958 | 17 | 144 | 6.4 | 9.7 | 0.00 | 0.00 | 0.00 | ||
| 20260901214557 | 17 | 140 | 4.8 | 6.4 | 0.00 | 0.00 | 0.00 | ||
| 20260901214154 | 17 | 135 | 4.8 | 6.4 | 0.00 | 0.00 | 0.00 | ||
| 20260901213752 | 17 | 135 | 4.8 | 8.0 | 0.00 | 0.00 | 0.00 | ||
| 20260901213351 | 17 | 157 | 4.8 | 8.0 | 0.00 | 0.00 | 0.00 | ||
| 20260901212949 | 17 | 157 | 4.8 | 8.0 | 0.00 | 0.00 | 0.00 | ||
| 20260901212541 | 17 | 157 | 4.8 | 8.0 | 0.00 | 0.00 | 0.00 | ||
| 20260901212138 | 17 | 157 | 4.8 | 8.0 | 0.00 | 0.00 | 0.00 | ||
| 20260901211737 | 17 | 159 | 6.4 | 8.0 | 0.00 | 0.00 | 0.00 | ||
| 20260901211336 | 17 | 143 | 4.8 | 9.7 | 0.00 | 0.00 | 0.00 | ||
| 20260901210935 | 17 | 147 | 4.8 | 6.4 | 0.00 | 0.00 | 0.00 | ||
| 20260901210532 | 17 | 157 | 4.8 | 8.0 | 0.00 | 0.00 | 0.00 | ||
| 20260901210131 | 18 | 140 | 6.4 | 9.7 | 0.00 | 0.00 | 0.00 | ||
| 20260901205730 | 18 | 147 | 4.8 | 8.0 | 0.00 | 0.00 | 0.00 | ||
| 20260901205329 | 18 | 147 | 6.4 | 11.3 | 0.00 | 0.00 | 0.00 | ||
| 20260901204927 | 18 | 157 | 6.4 | 9.7 | 0.00 | 0.00 | 0.00 | ||
| 20260901204518 | 17 | 157 | 4.8 | 8.0 | 0.00 | 0.00 | 0.00 | ||
| 20260901204115 | 17 | 143 | 3.2 | 6.4 | 0.00 | 0.00 | 0.00 | ||
| 20260901203714 | 17 | 153 | 4.8 | 9.7 | 0.00 | 0.00 | 0.00 | ||
| 20260901203313 | 17 | 139 | 3.2 | 6.4 | 0.00 | 0.00 | 0.00 | ||
| 20260901202910 | 17 | 157 | 4.8 | 9.7 | 0.00 | 0.00 | 0.00 | ||
| 20260901202509 | 17 | 135 | 3.2 | 4.8 | 0.00 | 0.00 | 0.00 | ||
| 20260901202106 | 18 | 157 | 3.2 | 4.8 | 0.00 | 0.00 | 0.00 | ||
| 20260901201705 | 18 | 143 | 4.8 | 8.0 | 0.00 | 0.00 | 0.00 | ||
| 20260901201303 | 18 | 153 | 4.8 | 8.0 | 0.00 | 0.00 | 0.00 | ||
| 20260901200901 | 18 | 136 | 4.8 | 6.4 | 0.00 | 0.00 | 0.00 | ||
| 20260901200453 | 17 | 135 | 3.2 | 4.8 | 0.00 | 0.00 | 0.00 | ||
| 20260901200051 | 18 | 138 | 3.2 | 6.4 | 0.00 | 0.00 | 0.00 | ||
| 20260901195649 | 17 | 135 | 3.2 | 4.8 | 0.00 | 0.00 | 0.00 | ||
| 20260901195248 | 17 | 197 | 1.6 | 3.2 | 0.00 | 0.00 | 0.00 | ||
| 20260901194846 | 17 | 202 | 1.6 | 3.2 | 0.00 | 0.00 | 0.00 | ||
| 20260901194445 | 17 | 202 | 1.6 | 3.2 | 0.00 | 0.00 | 0.00 | ||
| 20260901194043 | 17 | 202 | 1.6 | 3.2 | 0.00 | 0.00 | 0.00 | ||
| 20260901193641 | 17 | 213 | 3.2 | 6.4 | 0.00 | 0.00 | 0.00 | ||
| 20260901193240 | 17 | 225 | 3.2 | 3.2 | 0.00 | 0.00 | 0.00 | ||
| 20260901192839 | 17 | 225 | 0.0 | 1.6 | 0.00 | 0.00 | 0.00 | ||
| 20260901192431 | 17 | 225 | 1.6 | 3.2 | 0.00 | 0.00 | 0.00 | ||
| 20260901192027 | 17 | 225 | 1.6 | 3.2 | 0.00 | 0.00 | 0.00 | ||
| 20260901191627 | 18 | 237 | 3.2 | 6.4 | 0.00 | 0.00 | 0.00 | ||
| 20260901191226 | 18 | 248 | 4.8 | 4.8 | 0.00 | 0.00 | 0.00 | ||
| 20260901190824 | 17 | 292 | 3.2 | 3.2 | 0.00 | 0.00 | 0.00 | ||
| 20260901190422 | 17 | 292 | 0.0 | 1.6 | 0.00 | 0.00 | 0.00 | ||
| 20260901190020 | 18 | 292 | 0.0 | 3.2 | 0.00 | 0.00 | 0.00 | ||
| 20260901185619 | 18 | 292 | 0.0 | 1.6 | 0.00 | 0.00 | 0.00 | ||
| 20260901185218 | 18 | 292 | 1.6 | 3.2 | 0.00 | 0.00 | 0.00 | ||
| 20260901184815 | 18 | 292 | 1.6 | 3.2 | 0.00 | 0.00 | 0.00 | ||
| 20260901184407 | 18 | 292 | 1.6 | 3.2 | 0.00 | 0.00 | 0.00 | ||
| 20260901184005 | 18 | 292 | 1.6 | 3.2 | 0.00 | 0.00 | 0.00 | ||
| 20260901183604 | 18 | 298 | 1.6 | 3.2 | 0.00 | 0.00 | 0.00 | ||
| 20260901183203 | 18 | 315 | 0.0 | 1.6 | 0.00 | 0.00 | 0.00 | ||
| 20260901182800 | 18 | 315 | 0.0 | 0.0 | 0.00 | 0.00 | 0.00 | ||
| 20260901182359 | 18 | 315 | 0.0 | 0.0 | 0.00 | 0.00 | 0.00 | ||
| 20260901181957 | 19 | 315 | 0.0 | 0.0 | 0.00 | 0.00 | 0.00 | ||
| 20260901181556 | 20 | 315 | 0.0 | 0.0 | 0.00 | 0.00 | 0.00 | ||
| 20260901181154 | 20 | 315 | 0.0 | 0.0 | 0.00 | 0.00 | 0.00 | ||
| 20260901180752 | 20 | 313 | 0.0 | 3.2 | 0.00 | 0.00 | 0.00 | ||
| 20260901180344 | 20 | 315 | 0.0 | 0.0 | 0.00 | 0.00 | 0.00 | ||
| 20260901175942 | 19 | 315 | 0.0 | 0.0 | 0.00 | 0.00 | 0.00 | ||
| 20260901175540 | 19 | 315 | 0.0 | 0.0 | 0.00 | 0.00 | 0.00 | ||
| 20260901175139 | 20 | 315 | 0.0 | 1.6 | 0.00 | 0.00 | 0.00 | ||
| 20260901174737 | 20 | 315 | 1.6 | 3.2 | 0.00 | 0.00 | 0.00 | ||
| 20260901174336 | 20 | 315 | 1.6 | 3.2 | 0.00 | 0.00 | 0.00 | ||
| 20260901173532 | 20 | 315 | 1.6 | 3.2 | 0.00 | 0.00 | 0.00 | ||
| 20260901173414 | 20 | 315 | 0.0 | 3.2 | 0.00 | 0.00 | 0.00 | ||
| 20260901173131 | 20 | 315 | 0.0 | 3.2 | 0.00 | 0.00 | 0.00 | ||
| 20260901172729 | 21 | 315 | 1.6 | 3.2 | 0.00 | 0.00 | 0.00 | ||
| 20260901171918 | 21 | 315 | 0.0 | 3.2 | 0.00 | 0.00 | 0.00 | ||
| 20260901171517 | 21 | 293 | 3.2 | 6.4 | 0.00 | 0.00 | 0.00 | ||
| 20260901171116 | 21 | 292 | 1.6 | 3.2 | 0.00 | 0.00 | 0.00 | ||
| 20260901170714 | 21 | 292 | 1.6 | 4.8 | 0.00 | 0.00 | 0.00 | ||
| 20260901170312 | 21 | 295 | 3.2 | 4.8 | 0.00 | 0.00 | 0.00 | ||
| 20260901165911 | 21 | 305 | 4.8 | 8.0 | 0.00 | 0.00 | 0.00 | ||
| 20260901165510 | 22 | 292 | 4.8 | 9.7 | 0.00 | 0.00 | 0.00 | ||
| 20260901165109 | 22 | 292 | 4.8 | 6.4 | 0.00 | 0.00 | 0.00 | ||
| 20260901164706 | 23 | 292 | 6.4 | 8.0 | 0.00 | 0.00 | 0.00 | ||
| 20260901164258 | 23 | 307 | 6.4 | 9.7 | 0.00 | 0.00 | 0.00 | ||
| 20260901163856 | 25 | 315 | 3.2 | 6.4 | 0.00 | 0.00 | 0.00 | ||
| 20260901163455 | 24 | 298 | 4.8 | 9.7 | 0.00 | 0.00 | 0.00 | ||
| 20260901163053 | 25 | 295 | 8.0 | 11.3 | 0.00 | 0.00 | 0.00 | ||
| 20260901162651 | 25 | 301 | 6.4 | 11.3 | 0.00 | 0.00 | 0.00 | ||
| 20260901162250 | 25 | 315 | 3.2 | 6.4 | 0.00 | 0.00 | 0.00 | ||
| 20260901161848 | 23 | 286 | 6.4 | 8.0 | 0.00 | 0.00 | 0.00 | ||
| 20260901161447 | 23 | 273 | 8.0 | 12.9 | 0.00 | 0.00 | 0.00 | ||
| 20260901161045 | 23 | 292 | 8.0 | 12.9 | 0.00 | 0.00 | 0.00 | ||
| 20260901160643 | 23 | 292 | 6.4 | 11.3 | 0.00 | 0.00 | 0.00 | ||
| 20260901160235 | 22 | 301 | 4.8 | 9.7 | 0.00 | 0.00 | 0.00 | ||
| 20260901155833 | 22 | 287 | 6.4 | 9.7 | 0.00 | 0.00 | 0.00 | ||
| 20260901155431 | 22 | 292 | 4.8 | 6.4 | 0.00 | 0.00 | 0.00 | ||
| 20260901155030 | 22 | 277 | 3.2 | 4.8 | 0.00 | 0.00 | 0.00 | ||
| 20260901154628 | 22 | 289 | 4.8 | 9.7 | 0.00 | 0.00 | 0.00 | ||
| 20260901154228 | 22 | 290 | 4.8 | 8.0 | 0.00 | 0.00 | 0.00 | ||
| 20260901153824 | 22 | 304 | 3.2 | 8.0 | 0.00 | 0.00 | 0.00 | ||
| 20260901153423 | 22 | 298 | 8.0 | 12.9 | 0.00 | 0.00 | 0.00 | ||
| 20260901153022 | 22 | 297 | 6.4 | 9.7 | 0.00 | 0.00 | 0.00 | ||
| 20260901152621 | 22 | 278 | 6.4 | 9.7 | 0.00 | 0.00 | 0.00 | ||
| 20260901152211 | 22 | 302 | 4.8 | 8.0 | 0.00 | 0.00 | 0.00 | ||
| 20260901151810 | 22 | 296 | 8.0 | 14.5 | 0.00 | 0.00 | 0.00 | ||
| 20260901151409 | 22 | 297 | 8.0 | 12.9 | 0.00 | 0.00 | 0.00 | ||
| 20260901151008 | 22 | 301 | 8.0 | 14.5 | 0.00 | 0.00 | 0.00 | ||
| 20260901150606 | 22 | 291 | 8.0 | 12.9 | 0.00 | 0.00 | 0.00 | ||
| 20260901150204 | 22 | 314 | 4.8 | 8.0 | 0.00 | 0.00 | 0.00 | ||
| 20260901145802 | 22 | 308 | 6.4 | 9.7 | 0.00 | 0.00 | 0.00 | ||
| 20260901145401 | 22 | 295 | 8.0 | 14.5 | 0.00 | 0.00 | 0.00 | ||
| 20260901145000 | 22 | 298 | 4.8 | 11.3 | 0.00 | 0.00 | 0.00 | ||
| 20260901144557 | 22 | 296 | 4.8 | 6.4 | 0.00 | 0.00 | 0.00 | ||
| 20260901144149 | 22 | 313 | 8.0 | 12.9 | 0.00 | 0.00 | 0.00 | ||
| 20260901143747 | 22 | 289 | 4.8 | 8.0 | 0.00 | 0.00 | 0.00 | ||
| 20260901143346 | 22 | 279 | 3.2 | 6.4 | 0.00 | 0.00 | 0.00 | ||
| 20260901142944 | 22 | 289 | 8.0 | 14.5 | 0.00 | 0.00 | 0.00 | ||
| 20260901142542 | 22 | 309 | 6.4 | 9.7 | 0.00 | 0.00 | 0.00 | ||
| 20260901142141 | 22 | 302 | 8.0 | 11.3 | 0.00 | 0.00 | 0.00 | ||
| 20260901141739 | 22 | 298 | 6.4 | 9.7 | 0.00 | 0.00 | 0.00 | ||
| 20260901141337 | 22 | 292 | 6.4 | 12.9 | 0.00 | 0.00 | 0.00 | ||
| 20260901140936 | 22 | 303 | 4.8 | 8.0 | 0.00 | 0.00 | 0.00 | ||
| 20260901140534 | 22 | 294 | 8.0 | 14.5 | 0.00 | 0.00 | 0.00 | ||
| 20260901140126 | 22 | 298 | 6.4 | 11.3 | 0.00 | 0.00 | 0.00 | ||
| 20260901135725 | 23 | 270 | 3.2 | 8.0 | 0.00 | 0.00 | 0.00 | ||
| 20260901135322 | 22 | 298 | 8.0 | 14.5 | 0.00 | 0.00 | 0.00 | ||
| 20260901134922 | 22 | 306 | 6.4 | 11.3 | 0.00 | 0.00 | 0.00 | ||
| 20260901134520 | 23 | 255 | 12.9 | 17.7 | 0.00 | 0.00 | 0.00 | ||
| 20260901134119 | 23 | 277 | 6.4 | 9.7 | 0.00 | 0.00 | 0.00 | ||
| 20260901133716 | 23 | 266 | 8.0 | 16.1 | 0.00 | 0.00 | 0.00 | ||
| 20260901133315 | 23 | 279 | 9.7 | 12.9 | 0.00 | 0.00 | 0.00 | ||
| 20260901132914 | 23 | 256 | 8.0 | 16.1 | 0.00 | 0.00 | 0.00 | ||
| 20260901132512 | 23 | 257 | 11.3 | 16.1 | 0.00 | 0.00 | 0.00 | ||
| 20260901132103 | 23 | 277 | 11.3 | 14.5 | 0.00 | 0.00 | 0.00 | ||
| 20260901131700 | 23 | 256 | 12.9 | 20.9 | 0.00 | 0.00 | 0.00 | ||
| 20260901131259 | 23 | 268 | 16.1 | 20.9 | 0.00 | 0.00 | 0.00 | ||
| 20260901130858 | 24 | 250 | 11.3 | 16.1 | 0.00 | 0.00 | 0.00 | ||
| 20260901130454 | 23 | 261 | 12.9 | 19.3 | 0.00 | 0.00 | 0.00 | ||
| 20260901130053 | 24 | 277 | 6.4 | 14.5 | 0.00 | 0.00 | 0.00 | ||
| 20260901125651 | 23 | 231 | 9.7 | 14.5 | 0.00 | 0.00 | 0.00 | ||
| 20260901125250 | 23 | 261 | 14.5 | 19.3 | 0.00 | 0.00 | 0.00 | ||
| 20260901124849 | 24 | 243 | 11.3 | 17.7 | 0.00 | 0.00 | 0.00 | ||
| 20260901124446 | 24 | 261 | 17.7 | 24.1 | 0.00 | 0.00 | 0.00 | ||
| 20260901124038 | 24 | 256 | 12.9 | 22.5 | 0.00 | 0.00 | 0.00 | ||
| 20260901123636 | 24 | 267 | 12.9 | 19.3 | 0.00 | 0.00 | 0.00 | ||
| 20260901123235 | 24 | 240 | 14.5 | 22.5 | 0.00 | 0.00 | 0.00 | ||
| 20260901122431 | 23 | 250 | 14.5 | 24.1 | 0.00 | 0.00 | 0.00 | ||
| 20260901121628 | 25 | 238 | 12.9 | 24.1 | 0.00 | 0.00 | 0.00 | ||
| 20260901121226 | 25 | 241 | 12.9 | 22.5 | 0.00 | 0.00 | 0.00 | ||
| 20260901120825 | 23 | 244 | 11.3 | 17.7 | 0.00 | 0.00 | 0.00 | ||
| 20260901120423 | 23 | 231 | 12.9 | 24.1 | 0.00 | 0.00 | 0.00 | ||
| 20260901120015 | 23 | 218 | 14.5 | 22.5 | 0.00 | 0.00 | 0.00 | ||
| 20260901115612 | 23 | 240 | 17.7 | 25.7 | 0.00 | 0.00 | 0.00 | ||
| 20260901115211 | 23 | 233 | 9.7 | 16.1 | 0.00 | 0.00 | 0.00 | ||
| 20260901114810 | 23 | 250 | 14.5 | 24.1 | 0.00 | 0.00 | 0.00 | ||
| 20260901114409 | 24 | 233 | 16.1 | 19.3 | 0.00 | 0.00 | 0.00 | ||
| 20260901114008 | 23 | 257 | 14.5 | 24.1 | 0.00 | 0.00 | 0.00 | ||
| 20260901113605 | 23 | 263 | 16.1 | 25.7 | 0.00 | 0.00 | 0.00 | ||
| 20260901113204 | 24 | 254 | 14.5 | 20.9 | 0.00 | 0.00 | 0.00 | ||
| 20260901112803 | 24 | 220 | 14.5 | 19.3 | 0.00 | 0.00 | 0.00 | ||
| 20260901112401 | 24 | 235 | 9.7 | 16.1 | 0.00 | 0.00 | 0.00 | ||
| 20260901111952 | 24 | 242 | 8.0 | 19.3 | 0.00 | 0.00 | 0.00 | ||
| 20260901111550 | 23 | 238 | 11.3 | 17.7 | 0.00 | 0.00 | 0.00 | ||
| 20260901111149 | 23 | 237 | 12.9 | 17.7 | 0.00 | 0.00 | 0.00 | ||
| 20260901110748 | 23 | 218 | 16.1 | 32.2 | 0.00 | 0.00 | 0.00 | ||
| 20260901110345 | 23 | 223 | 12.9 | 20.9 | 0.00 | 0.00 | 0.00 | ||
| 20260901105944 | 22 | 260 | 9.7 | 19.3 | 0.00 | 0.00 | 0.00 | ||
| 20260901105542 | 22 | 249 | 11.3 | 16.1 | 0.00 | 0.00 | 0.00 | ||
| 20260901105141 | 22 | 251 | 8.0 | 16.1 | 0.00 | 0.00 | 0.00 | ||
| 20260901104739 | 22 | 247 | 16.1 | 24.1 | 0.00 | 0.00 | 0.00 | ||
| 20260901104337 | 23 | 244 | 14.5 | 22.5 | 0.00 | 0.00 | 0.00 | ||
| 20260901103929 | 23 | 258 | 12.9 | 19.3 | 0.00 | 0.00 | 0.00 | ||
| 20260901103527 | 23 | 223 | 9.7 | 22.5 | 0.00 | 0.00 | 0.00 | ||
| 20260901103126 | 22 | 258 | 12.9 | 19.3 | 0.00 | 0.00 | 0.00 | ||
| 20260901102724 | 22 | 275 | 14.5 | 20.9 | 0.00 | 0.00 | 0.00 | ||
| 20260901102322 | 22 | 263 | 11.3 | 16.1 | 0.00 | 0.00 | 0.00 | ||
| 20260901101921 | 22 | 263 | 14.5 | 20.9 | 0.00 | 0.00 | 0.00 | ||
| 20260901101520 | 22 | 242 | 12.9 | 20.9 | 0.00 | 0.00 | 0.00 | ||
| 20260901101117 | 23 | 271 | 14.5 | 24.1 | 0.00 | 0.00 | 0.00 | ||
| 20260901100716 | 22 | 214 | 12.9 | 24.1 | 0.00 | 0.00 | 0.00 | ||
| 20260901100315 | 22 | 232 | 11.3 | 22.5 | 0.00 | 0.00 | 0.00 | ||
| 20260901095907 | 23 | 263 | 11.3 | 20.9 | 0.00 | 0.00 | 0.00 | ||
| 20260901095504 | 23 | 243 | 11.3 | 17.7 | 0.00 | 0.00 | 0.00 | ||
| 20260901095103 | 22 | 228 | 12.9 | 20.9 | 0.00 | 0.00 | 0.00 | ||
| 20260901094702 | 22 | 278 | 12.9 | 16.1 | 0.00 | 0.00 | 0.00 | ||
| 20260901094300 | 22 | 247 | 11.3 | 17.7 | 0.00 | 0.00 | 0.00 | ||
| 20260901093858 | 22 | 248 | 12.9 | 19.3 | 0.00 | 0.00 | 0.00 | ||
| 20260901093456 | 22 | 232 | 11.3 | 19.3 | 0.00 | 0.00 | 0.00 | ||
| 20260901093055 | 22 | 254 | 9.7 | 19.3 | 0.00 | 0.00 | 0.00 | ||
| 20260901092654 | 22 | 258 | 14.5 | 20.9 | 0.00 | 0.00 | 0.00 | ||
| 20260901091843 | 22 | 241 | 9.7 | 14.5 | 0.00 | 0.00 | 0.00 | ||
| 20260901091441 | 21 | 244 | 14.5 | 17.7 | 0.00 | 0.00 | 0.00 | ||
| 20260901091040 | 22 | 219 | 6.4 | 11.3 | 0.00 | 0.00 | 0.00 | ||
| 20260901090639 | 22 | 240 | 9.7 | 14.5 | 0.00 | 0.00 | 0.00 | ||
| 20260901090236 | 21 | 266 | 8.0 | 11.3 | 0.00 | 0.00 | 0.00 | ||
| 20260901085835 | 22 | 267 | 11.3 | 14.5 | 0.00 | 0.00 | 0.00 | ||
| 20260901085433 | 22 | 241 | 11.3 | 17.7 | 0.00 | 0.00 | 0.00 | ||
| 20260901085033 | 21 | 260 | 14.5 | 17.7 | 0.00 | 0.00 | 0.00 | ||
| 20260901084630 | 22 | 222 | 12.9 | 24.1 | 0.00 | 0.00 | 0.00 | ||
| 20260901084309 | 22 | 255 | 12.9 | 19.3 | 0.00 | 0.00 | 0.00 | ||
| 20260901084229 | 22 | 255 | 12.9 | 19.3 | 0.00 | 0.00 | 0.00 |